Plattsburgh, NY

1:41 PM EDT on March 24, 2017 (GMT -0400)
Plattsburgh International

Weather History for KPBG - March, 2013

Change the Weather History Date:

Monday, March 18, 2013

  Actual Average Record
Temperature  
Mean Temperature 19 °F 31 °F  
Max Temperature 30 °F 41 °F 70 °F (2012)
Min Temperature 7 °F 21 °F -8 °F (1993)
Degree Days  
Heating Degree Days 46 34  
Month to date heating degree days 622 659  
Since 1 July heating degree days 5773 6271  
Cooling Degree Days 0 0  
Month to date cooling degree days 0 0  
Year to date cooling degree days 0 0  
Moisture  
Dew Point 5 °F    
Average Humidity 50    
Maximum Humidity 69    
Minimum Humidity 31    
Precipitation  
Precipitation T in - 0.78 in (1973)
Month to date precipitation 0.70  
Year to date precipitation 2.18  
Sea Level Pressure  
Sea Level Pressure 30.33 in    
Wind  
Wind Speed 3 mph (SE)    
Max Wind Speed 21 mph    
Max Gust Speed 25 mph    
Visibility 10 miles    
Events      
T = Trace of Precipitation, MM = Missing Value Source: NWS Daily Summary

Daily Weather History Graph

Daily Weather History Graph

Search for Another Location

Airport or City:

Trip Planner

Search our weather history database for the weather conditions in past years. The results will help you decide how hot, cold, wet, or windy it might be!

Date:

Astronomy

Mar. 18, 2013 Rise Set
Actual Time 7:00 AM EDT 7:04 PM EDT
Civil Twilight 6:31 AM EDT 7:33 PM EDT
Nautical Twilight 5:57 AM EDT 8:07 PM EDT
Astronomical Twilight 5:22 AM EDT 8:42 PM EDT
Moon 10:43 AM EDT (3/18) 1:14 AM EDT (3/18)
Length of Visible Light 13h 01m
Length of Day
12h 03m
Waxing Crescent, 40% of the Moon is Illuminated
Mar 18
Waxing Crescent
Mar 19
First Quarter
Mar 27
Full
Apr 3
Last Quarter
Apr 10
New

Hourly Weather History & Observations

Time (EDT) Temp. Windchill Dew Point Humidity Pressure Visibility Wind Dir Wind Speed Gust Speed Precip Events Conditions
12:53 AM 14.0 °F 8.2 °F -0.9 °F 52% 30.38 in 10.0 mi West 3.5 mph - N/A   Clear
1:53 AM 15.1 °F 7.7 °F -2.0 °F 47% 30.40 in 10.0 mi WNW 4.6 mph - N/A   Clear
2:53 AM 12.0 °F - -0.0 °F 59% 30.39 in 10.0 mi Calm Calm - N/A   Clear
3:53 AM 10.9 °F - -0.0 °F 61% 30.40 in 10.0 mi Calm Calm - N/A   Clear
4:53 AM 10.9 °F - -0.9 °F 59% 30.40 in 10.0 mi Calm Calm - N/A   Clear
5:53 AM 9.0 °F - -0.0 °F 67% 30.43 in 10.0 mi Calm Calm - N/A   Clear
6:53 AM 8.1 °F - -0.9 °F 67% 30.44 in 10.0 mi Calm Calm - N/A   Clear
7:53 AM 10.9 °F - 1.9 °F 67% 30.45 in 10.0 mi Calm Calm - N/A   Clear
8:53 AM 18.0 °F - 3.0 °F 52% 30.46 in 10.0 mi Calm Calm - N/A   Clear
9:53 AM 21.0 °F 12.4 °F 10.9 °F 65% 30.46 in 10.0 mi ESE 6.9 mph - N/A   Clear
10:53 AM 24.1 °F 16.0 °F 6.1 °F 46% 30.45 in 10.0 mi SE 6.9 mph - N/A   Clear
11:53 AM 25.0 °F 17.1 °F 5.0 °F 43% 30.43 in 10.0 mi SE 6.9 mph - 0.00 in   Clear
12:53 PM 27.0 °F 18.7 °F 6.1 °F 41% 30.41 in 10.0 mi SE 8.1 mph - N/A   Clear
1:53 PM 28.0 °F 20.8 °F 1.9 °F 33% 30.37 in 10.0 mi SE 6.9 mph - N/A   Clear
2:53 PM 28.9 °F 22.8 °F 1.0 °F 30% 30.33 in 10.0 mi South 5.8 mph - N/A   Clear
3:53 PM 28.9 °F 25.2 °F 3.9 °F 35% 30.30 in 10.0 mi ENE 3.5 mph - N/A   Clear
4:53 PM 28.9 °F - 5.0 °F 36% 30.27 in 10.0 mi Calm Calm - N/A   Clear
5:53 PM 28.9 °F 25.2 °F 8.1 °F 41% 30.23 in 10.0 mi Variable 3.5 mph - N/A   Clear
6:53 PM 28.0 °F - 10.0 °F 47% 30.21 in 10.0 mi Calm Calm - N/A   Clear
7:53 PM 28.0 °F - 10.9 °F 49% 30.20 in 10.0 mi Calm Calm - N/A   Clear
8:53 PM 27.0 °F - 10.9 °F 51% 30.18 in 10.0 mi Calm Calm - N/A   Clear
9:53 PM 27.0 °F - 15.1 °F 61% 30.16 in 10.0 mi Calm Calm - N/A   Partly Cloudy
10:53 PM 28.0 °F - 14.0 °F 56% 30.12 in 10.0 mi Calm Calm - N/A   Overcast
11:53 PM 28.0 °F 24.2 °F 14.0 °F 56% 30.10 in 10.0 mi South 3.5 mph - N/A   Overcast